owner,sensor,date,latitude,longitude,vertical_datum,sea_water_temperature,qcFlag
Freeport,ioos:station:wmo:42888:1,2020-10-11T19:22:00Z,26.3073,-91.0723,9.5,27.8,11111222
Freeport,ioos:station:wmo:42888:1,2020-10-11T19:32:00Z,26.3073,-91.0723,9.3,27.9,11111222
Freeport,ioos:station:wmo:42888:1,2020-10-11T19:42:00Z,26.3073,-91.0724,9.6,28.0,11111222
Freeport,ioos:station:wmo:42888:1,2020-10-11T19:52:00Z,26.3073,-91.0724,9.6,28.0,11111222
Freeport,ioos:station:wmo:42888:1,2020-10-11T20:02:00Z,26.3073,-91.0724,9.5,28.0,11111222
Freeport,ioos:station:wmo:42888:1,2020-10-11T20:12:00Z,26.3073,-91.0723,9.5,28.0,11111222
Freeport,ioos:station:wmo:42888:1,2020-10-11T20:22:00Z,26.3073,-91.0723,9.4,28.1,11111222
Freeport,ioos:station:wmo:42888:1,2020-10-11T20:32:00Z,26.3073,-91.0724,9.7,28.1,11111222
Freeport,ioos:station:wmo:42888:1,2020-10-11T20:42:00Z,26.3073,-91.0723,9.5,28.1,11111222
Freeport,ioos:station:wmo:42888:1,2020-10-11T20:52:00Z,26.3073,-91.0723,9.4,28.1,11111222
Freeport,ioos:station:wmo:42888:1,2020-10-11T21:02:00Z,26.3073,-91.0723,9.5,28.0,11111222
Freeport,ioos:station:wmo:42888:1,2020-10-11T21:12:00Z,26.3072,-91.0723,9.9,28.0,11111222
Freeport,ioos:station:wmo:42888:1,2020-10-11T21:22:00Z,26.3073,-91.0723,9.4,28.0,11111222
Freeport,ioos:station:wmo:42888:1,2020-10-11T21:32:00Z,26.3072,-91.0723,9.7,28.0,11111222
Freeport,ioos:station:wmo:42888:1,2020-10-11T21:42:00Z,26.3073,-91.0723,9.6,28.0,11111222
Freeport,ioos:station:wmo:42888:1,2020-10-11T21:52:00Z,26.3073,-91.0724,9.8,28.1,11111222
Freeport,ioos:station:wmo:42888:1,2020-10-11T22:02:00Z,26.3073,-91.0723,9.5,28.0,11111222
Freeport,ioos:station:wmo:42888:1,2020-10-11T22:12:00Z,26.3072,-91.0723,9.8,28.1,11111222
Freeport,ioos:station:wmo:42888:1,2020-10-11T22:22:00Z,26.3073,-91.0723,9.5,28.1,11111222
Freeport,ioos:station:wmo:42888:1,2020-10-11T22:32:00Z,26.3073,-91.0723,9.9,28.1,11111222
Freeport,ioos:station:wmo:42888:1,2020-10-11T22:42:00Z,26.3073,-91.0724,9.6,28.0,11111222
Freeport,ioos:station:wmo:42888:1,2020-10-11T22:52:00Z,26.3073,-91.0723,9.7,28.0,11111222
Freeport,ioos:station:wmo:42888:1,2020-10-11T23:02:00Z,26.3073,-91.0723,9.6,27.9,11111222
Freeport,ioos:station:wmo:42888:1,2020-10-11T23:12:00Z,26.3073,-91.0723,9.7,28.0,11111222
Freeport,ioos:station:wmo:42888:1,2020-10-11T23:22:00Z,26.3072,-91.0723,9.5,28.0,11111222
Freeport,ioos:station:wmo:42888:1,2020-10-11T23:32:00Z,26.3073,-91.0723,9.6,28.0,11111222
Freeport,ioos:station:wmo:42888:1,2020-10-11T23:42:00Z,26.3073,-91.0723,9.5,28.0,11111222
Freeport,ioos:station:wmo:42888:1,2020-10-11T23:52:00Z,26.3072,-91.0724,9.9,28.0,11111222
Freeport,ioos:station:wmo:42888:1,2020-10-12T00:02:00Z,26.3073,-91.0723,9.9,28.0,11111222
Freeport,ioos:station:wmo:42888:1,2020-10-12T00:12:00Z,26.3073,-91.0723,9.7,28.0,11111222
Freeport,ioos:station:wmo:42888:1,2020-10-12T00:22:00Z,26.3073,-91.0723,9.8,28.0,11111222
Freeport,ioos:station:wmo:42888:1,2020-10-12T00:32:00Z,26.3073,-91.0723,9.8,27.9,11111222
Freeport,ioos:station:wmo:42888:1,2020-10-12T00:42:00Z,26.3073,-91.0723,9.5,27.9,11111222
Freeport,ioos:station:wmo:42888:1,2020-10-12T00:52:00Z,26.3073,-91.0723,9.7,27.9,11111222
Freeport,ioos:station:wmo:42888:1,2020-10-12T01:02:00Z,26.3073,-91.0723,9.7,27.9,11111222
Freeport,ioos:station:wmo:42888:1,2020-10-12T01:12:00Z,26.3073,-91.0723,9.4,27.9,11111222
Freeport,ioos:station:wmo:42888:1,2020-10-12T01:22:00Z,26.3073,-91.0723,9.5,27.9,11111222
Freeport,ioos:station:wmo:42888:1,2020-10-12T01:32:00Z,26.3073,-91.0723,9.4,27.9,11111222
Freeport,ioos:station:wmo:42888:1,2020-10-12T01:42:00Z,26.3073,-91.0723,9.7,27.9,11111222
Freeport,ioos:station:wmo:42888:1,2020-10-12T01:52:00Z,26.3073,-91.0723,9.5,27.8,11111222
Freeport,ioos:station:wmo:42888:1,2020-10-12T02:02:00Z,26.3073,-91.0723,9.3,27.8,11111222
Freeport,ioos:station:wmo:42888:1,2020-10-12T02:12:00Z,26.3073,-91.0724,9.2,27.8,11111222
Freeport,ioos:station:wmo:42888:1,2020-10-12T02:22:00Z,26.3073,-91.0723,9.5,27.8,11111222
Freeport,ioos:station:wmo:42888:1,2020-10-12T02:32:00Z,26.3073,-91.0723,9.2,27.9,11111222
Freeport,ioos:station:wmo:42888:1,2020-10-12T02:42:00Z,26.3072,-91.0723,9.3,27.9,11111222
Freeport,ioos:station:wmo:42888:1,2020-10-12T02:52:00Z,26.3073,-91.0723,9.3,27.9,11111222
Freeport,ioos:station:wmo:42888:1,2020-10-12T03:02:00Z,26.3073,-91.0723,9.1,27.9,11111222
Freeport,ioos:station:wmo:42888:1,2020-10-12T03:12:00Z,26.3072,-91.0723,9.5,27.9,11111222
Freeport,ioos:station:wmo:42888:1,2020-10-12T03:22:00Z,26.3073,-91.0724,9.3,27.8,11111222
Freeport,ioos:station:wmo:42888:1,2020-10-12T03:32:00Z,26.3073,-91.0724,9.4,27.8,11111222
Freeport,ioos:station:wmo:42888:1,2020-10-12T03:42:00Z,26.3073,-91.0723,9.5,27.8,11111222
Freeport,ioos:station:wmo:42888:1,2020-10-12T03:52:00Z,26.3073,-91.0723,9.6,27.8,11111222
Freeport,ioos:station:wmo:42888:1,2020-10-12T04:02:00Z,26.3073,-91.0723,9.3,27.8,11111222
Freeport,ioos:station:wmo:42888:1,2020-10-12T04:12:00Z,26.3073,-91.0723,9.1,27.8,11111222
Freeport,ioos:station:wmo:42888:1,2020-10-12T04:22:00Z,26.3073,-91.0723,9.2,27.7,11111222
Freeport,ioos:station:wmo:42888:1,2020-10-12T04:32:00Z,26.3073,-91.0723,9.1,27.7,11111222
Freeport,ioos:station:wmo:42888:1,2020-10-12T04:42:00Z,26.3073,-91.0723,9.1,27.7,11111222
Freeport,ioos:station:wmo:42888:1,2020-10-12T04:52:00Z,26.3073,-91.0723,9.3,27.8,11111222
Freeport,ioos:station:wmo:42888:1,2020-10-12T05:02:00Z,26.3073,-91.0723,9.3,27.7,11111222
Freeport,ioos:station:wmo:42888:1,2020-10-12T05:12:00Z,26.3073,-91.0723,9.0,27.7,11111222
Freeport,ioos:station:wmo:42888:1,2020-10-12T05:22:00Z,26.3073,-91.0724,9.4,27.7,11111222
Freeport,ioos:station:wmo:42888:1,2020-10-12T05:32:00Z,26.3073,-91.0723,9.4,27.8,11111222
Freeport,ioos:station:wmo:42888:1,2020-10-12T05:42:00Z,26.3073,-91.0724,9.3,27.7,11111222
Freeport,ioos:station:wmo:42888:1,2020-10-12T05:52:00Z,26.3073,-91.0723,9.4,27.7,11111222
Freeport,ioos:station:wmo:42888:1,2020-10-12T06:02:00Z,26.3073,-91.0723,9.4,27.7,11111222
Freeport,ioos:station:wmo:42888:1,2020-10-12T06:12:00Z,26.3072,-91.0723,9.1,27.7,11111222
Freeport,ioos:station:wmo:42888:1,2020-10-12T06:22:00Z,26.3073,-91.0723,9.1,27.7,11111222
Freeport,ioos:station:wmo:42888:1,2020-10-12T06:32:00Z,26.3073,-91.0724,9.1,27.7,11111222
Freeport,ioos:station:wmo:42888:1,2020-10-12T06:42:00Z,26.3073,-91.0723,9.0,27.7,11111222
Freeport,ioos:station:wmo:42888:1,2020-10-12T06:52:00Z,26.3073,-91.0723,9.2,27.7,11111222
Freeport,ioos:station:wmo:42888:1,2020-10-12T07:02:00Z,26.3073,-91.0723,9.1,27.7,11111222
Freeport,ioos:station:wmo:42888:1,2020-10-12T07:12:00Z,26.3073,-91.0723,9.0,27.7,11111222
Freeport,ioos:station:wmo:42888:1,2020-10-12T07:22:00Z,26.3073,-91.0723,9.0,27.6,11111222
Freeport,ioos:station:wmo:42888:1,2020-10-12T07:32:00Z,26.3073,-91.0723,9.0,27.6,11111222
Freeport,ioos:station:wmo:42888:1,2020-10-12T07:42:00Z,26.3073,-91.0723,8.9,27.6,11111222
Freeport,ioos:station:wmo:42888:1,2020-10-12T07:52:00Z,26.3073,-91.0723,9.0,27.7,11111222
Freeport,ioos:station:wmo:42888:1,2020-10-12T08:02:00Z,26.3073,-91.0723,9.0,27.7,11111222
Freeport,ioos:station:wmo:42888:1,2020-10-12T08:12:00Z,26.3072,-91.0723,9.0,27.7,11111222
Freeport,ioos:station:wmo:42888:1,2020-10-12T08:22:00Z,26.3073,-91.0723,9.2,27.6,11111222
Freeport,ioos:station:wmo:42888:1,2020-10-12T08:32:00Z,26.3073,-91.0723,8.8,27.6,11111222
Freeport,ioos:station:wmo:42888:1,2020-10-12T08:42:00Z,26.3073,-91.0723,9.0,27.6,11111222
Freeport,ioos:station:wmo:42888:1,2020-10-12T08:52:00Z,26.3073,-91.0723,8.8,27.6,11111222
Freeport,ioos:station:wmo:42888:1,2020-10-12T09:02:00Z,26.3073,-91.0723,9.0,27.6,11111222
Freeport,ioos:station:wmo:42888:1,2020-10-12T09:12:00Z,26.3073,-91.0723,8.8,27.6,11111222
Freeport,ioos:station:wmo:42888:1,2020-10-12T09:22:00Z,26.3073,-91.0723,8.9,27.6,11111222
Freeport,ioos:station:wmo:42888:1,2020-10-12T09:32:00Z,26.3073,-91.0723,8.8,27.6,11111222
Freeport,ioos:station:wmo:42888:1,2020-10-12T09:42:00Z,26.3073,-91.0723,8.7,27.6,11111222
Freeport,ioos:station:wmo:42888:1,2020-10-12T09:52:00Z,26.3073,-91.0723,9.0,27.6,11111222
Freeport,ioos:station:wmo:42888:1,2020-10-12T10:02:00Z,26.3072,-91.0723,9.1,27.6,11111222
Freeport,ioos:station:wmo:42888:1,2020-10-12T10:12:00Z,26.3073,-91.0723,9.2,27.6,11111222
Freeport,ioos:station:wmo:42888:1,2020-10-12T10:22:00Z,26.3073,-91.0724,8.6,27.6,11111222
Freeport,ioos:station:wmo:42888:1,2020-10-12T10:32:00Z,26.3073,-91.0724,9.1,27.6,11111222
Freeport,ioos:station:wmo:42888:1,2020-10-12T10:42:00Z,26.3073,-91.0723,8.8,27.6,11111222
Freeport,ioos:station:wmo:42888:1,2020-10-12T10:52:00Z,26.3073,-91.0723,8.9,27.6,11111222
Freeport,ioos:station:wmo:42888:1,2020-10-12T11:02:00Z,26.3073,-91.0723,8.7,27.6,11111222
Freeport,ioos:station:wmo:42888:1,2020-10-12T11:12:00Z,26.3073,-91.0723,8.7,27.6,11111222
Freeport,ioos:station:wmo:42888:1,2020-10-12T11:22:00Z,26.3073,-91.0723,8.7,27.6,11111222
Freeport,ioos:station:wmo:42888:1,2020-10-12T11:32:00Z,26.3073,-91.0723,8.9,27.6,11111222
Freeport,ioos:station:wmo:42888:1,2020-10-12T11:42:00Z,26.3073,-91.0723,9.0,27.6,11111222
Freeport,ioos:station:wmo:42888:1,2020-10-12T11:52:00Z,26.3073,-91.0723,8.9,27.6,11111222
Freeport,ioos:station:wmo:42888:1,2020-10-12T12:02:00Z,26.3072,-91.0724,9.1,27.6,11111222
Freeport,ioos:station:wmo:42888:1,2020-10-12T12:12:00Z,26.3073,-91.0723,8.8,27.6,11111222
Freeport,ioos:station:wmo:42888:1,2020-10-12T12:22:00Z,26.3073,-91.0723,8.9,27.6,11111222
Freeport,ioos:station:wmo:42888:1,2020-10-12T12:32:00Z,26.3073,-91.0723,8.7,27.6,11111222
Freeport,ioos:station:wmo:42888:1,2020-10-12T12:42:00Z,26.3074,-91.0723,8.9,27.6,11111222
Freeport,ioos:station:wmo:42888:1,2020-10-12T12:52:00Z,26.3073,-91.0723,8.8,27.6,11111222
Freeport,ioos:station:wmo:42888:1,2020-10-12T13:02:00Z,26.3073,-91.0723,8.9,27.6,11111222
Freeport,ioos:station:wmo:42888:1,2020-10-12T13:12:00Z,26.3073,-91.0723,8.8,27.6,11111222
Freeport,ioos:station:wmo:42888:1,2020-10-12T13:22:00Z,26.3073,-91.0723,8.5,27.6,11111222
Freeport,ioos:station:wmo:42888:1,2020-10-12T13:32:00Z,26.3073,-91.0723,8.7,27.6,11111222
Freeport,ioos:station:wmo:42888:1,2020-10-12T13:42:00Z,26.3072,-91.0723,8.8,27.6,11111222
Freeport,ioos:station:wmo:42888:1,2020-10-12T13:52:00Z,26.3073,-91.0724,8.9,27.6,11111222
Freeport,ioos:station:wmo:42888:1,2020-10-12T14:02:00Z,26.3073,-91.0723,9.0,27.6,11111222
Freeport,ioos:station:wmo:42888:1,2020-10-12T14:12:00Z,26.3073,-91.0723,9.1,27.6,11111222
Freeport,ioos:station:wmo:42888:1,2020-10-12T14:22:00Z,26.3073,-91.0723,8.8,27.6,11111222
Freeport,ioos:station:wmo:42888:1,2020-10-12T14:32:00Z,26.3073,-91.0723,8.9,27.6,11111222
Freeport,ioos:station:wmo:42888:1,2020-10-12T14:42:00Z,26.3073,-91.0723,8.8,27.6,11111222
Freeport,ioos:station:wmo:42888:1,2020-10-12T14:52:00Z,26.3073,-91.0724,8.9,27.6,11111222
Freeport,ioos:station:wmo:42888:1,2020-10-12T15:02:00Z,26.3073,-91.0723,8.9,27.6,11111222
Freeport,ioos:station:wmo:42888:1,2020-10-12T15:12:00Z,26.3073,-91.0724,9.0,27.6,11111222
Freeport,ioos:station:wmo:42888:1,2020-10-12T15:22:00Z,26.3073,-91.0723,9.0,27.6,11111222
Freeport,ioos:station:wmo:42888:1,2020-10-12T15:32:00Z,26.3073,-91.0724,9.0,27.7,11111222
Freeport,ioos:station:wmo:42888:1,2020-10-12T15:42:00Z,26.3073,-91.0723,8.9,27.7,11111222
Freeport,ioos:station:wmo:42888:1,2020-10-12T15:52:00Z,26.3073,-91.0724,9.1,27.7,11111222
Freeport,ioos:station:wmo:42888:1,2020-10-12T16:02:00Z,26.3073,-91.0723,9.1,27.7,11111222
Freeport,ioos:station:wmo:42888:1,2020-10-12T16:12:00Z,26.3073,-91.0724,9.1,27.7,11111222
Freeport,ioos:station:wmo:42888:1,2020-10-12T16:22:00Z,26.3073,-91.0723,9.1,27.7,11111222
Freeport,ioos:station:wmo:42888:1,2020-10-12T16:32:00Z,26.3073,-91.0723,9.2,27.8,11111222
Freeport,ioos:station:wmo:42888:1,2020-10-12T16:42:00Z,26.3073,-91.0723,9.4,27.8,11111222
Freeport,ioos:station:wmo:42888:1,2020-10-12T16:52:00Z,26.3073,-91.0723,9.3,27.8,11111222
Freeport,ioos:station:wmo:42888:1,2020-10-12T17:02:00Z,26.3073,-91.0723,9.6,27.8,11111222
Freeport,ioos:station:wmo:42888:1,2020-10-12T17:12:00Z,26.3073,-91.0723,9.4,27.8,11111222
Freeport,ioos:station:wmo:42888:1,2020-10-12T17:22:00Z,26.3073,-91.0723,9.5,27.8,11111222
Freeport,ioos:station:wmo:42888:1,2020-10-12T17:32:00Z,26.3073,-91.0723,9.4,27.8,11111222
Freeport,ioos:station:wmo:42888:1,2020-10-12T17:42:00Z,26.3072,-91.0723,9.1,27.8,11111222
Freeport,ioos:station:wmo:42888:1,2020-10-12T17:52:00Z,26.3072,-91.0723,9.6,27.8,11111222
Freeport,ioos:station:wmo:42888:1,2020-10-12T18:02:00Z,26.3073,-91.0724,9.1,27.9,11111222
Freeport,ioos:station:wmo:42888:1,2020-10-12T18:12:00Z,26.3073,-91.0723,9.2,27.9,11111222
Freeport,ioos:station:wmo:42888:1,2020-10-12T18:22:00Z,26.3073,-91.0723,9.1,27.9,11111222
Freeport,ioos:station:wmo:42888:1,2020-10-12T18:32:00Z,26.3073,-91.0723,9.5,27.9,11111222
Freeport,ioos:station:wmo:42888:1,2020-10-12T18:42:00Z,26.3073,-91.0723,9.4,27.9,11111222
Freeport,ioos:station:wmo:42888:1,2020-10-12T18:52:00Z,26.3073,-91.0723,9.5,27.9,11111222
Freeport,ioos:station:wmo:42888:1,2020-10-12T19:02:00Z,26.3073,-91.0723,9.5,28.0,11111222
Freeport,ioos:station:wmo:42888:1,2020-10-12T19:12:00Z,26.3073,-91.0723,9.2,28.0,11111222
Freeport,ioos:station:wmo:42888:1,2020-10-12T19:22:00Z,26.3073,-91.0724,9.7,28.0,11111222
Freeport,ioos:station:wmo:42888:1,2020-10-12T19:32:00Z,26.3073,-91.0723,9.3,28.0,11111222
Freeport,ioos:station:wmo:42888:1,2020-10-12T19:42:00Z,26.3073,-91.0723,9.7,28.1,11111222
Freeport,ioos:station:wmo:42888:1,2020-10-12T19:52:00Z,26.3073,-91.0723,9.8,28.1,11111222
Freeport,ioos:station:wmo:42888:1,2020-10-12T20:02:00Z,26.3073,-91.0723,9.9,28.1,11111222
Freeport,ioos:station:wmo:42888:1,2020-10-12T20:12:00Z,26.3072,-91.0724,9.7,28.1,11111222
Freeport,ioos:station:wmo:42888:1,2020-10-12T20:22:00Z,26.3073,-91.0724,9.6,28.0,11111222
Freeport,ioos:station:wmo:42888:1,2020-10-12T20:32:00Z,26.3073,-91.0723,9.3,27.9,11111222
Freeport,ioos:station:wmo:42888:1,2020-10-12T20:42:00Z,26.3073,-91.0723,9.5,27.9,11111222
Freeport,ioos:station:wmo:42888:1,2020-10-12T20:52:00Z,26.3073,-91.0723,9.4,27.9,11111222
Freeport,ioos:station:wmo:42888:1,2020-10-12T21:02:00Z,26.3072,-91.0723,9.5,27.9,11111222
Freeport,ioos:station:wmo:42888:1,2020-10-12T21:12:00Z,26.3073,-91.0723,9.3,27.9,11111222
Freeport,ioos:station:wmo:42888:1,2020-10-12T21:22:00Z,26.3073,-91.0723,9.6,27.9,11111222
Freeport,ioos:station:wmo:42888:1,2020-10-12T21:32:00Z,26.3073,-91.0723,9.6,27.9,11111222
Freeport,ioos:station:wmo:42888:1,2020-10-12T21:42:00Z,26.3074,-91.0723,9.5,28.0,11111222
Freeport,ioos:station:wmo:42888:1,2020-10-12T21:52:00Z,26.3073,-91.0723,9.5,28.0,11111222
Freeport,ioos:station:wmo:42888:1,2020-10-12T22:02:00Z,26.3072,-91.0723,9.6,28.0,11111222
Freeport,ioos:station:wmo:42888:1,2020-10-12T22:12:00Z,26.3072,-91.0723,9.5,28.0,11111222
Freeport,ioos:station:wmo:42888:1,2020-10-12T22:22:00Z,26.3073,-91.0723,9.5,28.0,11111222
Freeport,ioos:station:wmo:42888:1,2020-10-12T22:32:00Z,26.3073,-91.0724,9.3,28.1,11111222
Freeport,ioos:station:wmo:42888:1,2020-10-12T22:42:00Z,26.3073,-91.0723,9.7,28.1,11111222
Freeport,ioos:station:wmo:42888:1,2020-10-12T22:52:00Z,26.3073,-91.0723,9.5,28.0,11111222
Freeport,ioos:station:wmo:42888:1,2020-10-12T23:02:00Z,26.3073,-91.0723,9.6,28.0,11111222
Freeport,ioos:station:wmo:42888:1,2020-10-12T23:12:00Z,26.3073,-91.0723,9.4,27.9,11111222
Freeport,ioos:station:wmo:42888:1,2020-10-12T23:22:00Z,26.3073,-91.0723,9.7,28.0,11111222
Freeport,ioos:station:wmo:42888:1,2020-10-12T23:32:00Z,26.3073,-91.0723,9.7,28.0,11111222
Freeport,ioos:station:wmo:42888:1,2020-10-12T23:42:00Z,26.3073,-91.0724,9.7,27.9,11111222
Freeport,ioos:station:wmo:42888:1,2020-10-12T23:52:00Z,26.3073,-91.0723,9.8,27.9,11111222
Freeport,ioos:station:wmo:42888:1,2020-10-13T00:02:00Z,26.3073,-91.0723,9.7,27.9,11111222
Freeport,ioos:station:wmo:42888:1,2020-10-13T00:12:00Z,26.3073,-91.0723,9.6,27.9,11111222
Freeport,ioos:station:wmo:42888:1,2020-10-13T00:22:00Z,26.3073,-91.0723,9.4,27.9,11111222
Freeport,ioos:station:wmo:42888:1,2020-10-13T00:32:00Z,26.3073,-91.0724,9.9,27.9,11111222
Freeport,ioos:station:wmo:42888:1,2020-10-13T00:42:00Z,26.3071,-91.0722,9.6,27.9,11111222
Freeport,ioos:station:wmo:42888:1,2020-10-13T00:52:00Z,26.3065,-91.0723,9.4,27.8,11111222
Freeport,ioos:station:wmo:42888:1,2020-10-13T01:02:00Z,26.3065,-91.0723,9.7,27.9,11111222
Freeport,ioos:station:wmo:42888:1,2020-10-13T01:12:00Z,26.3065,-91.0722,9.6,27.9,11111222
Freeport,ioos:station:wmo:42888:1,2020-10-13T01:22:00Z,26.3065,-91.0723,9.3,27.8,11111222
Freeport,ioos:station:wmo:42888:1,2020-10-13T01:32:00Z,26.3065,-91.0723,9.5,27.8,11111222
Freeport,ioos:station:wmo:42888:1,2020-10-13T01:42:00Z,26.3065,-91.0722,9.3,27.8,11111222
Freeport,ioos:station:wmo:42888:1,2020-10-13T01:52:00Z,26.3065,-91.0722,9.1,27.8,11111222
Freeport,ioos:station:wmo:42888:1,2020-10-13T02:02:00Z,26.3065,-91.0723,9.2,27.8,11111222
Freeport,ioos:station:wmo:42888:1,2020-10-13T02:12:00Z,26.3065,-91.0722,9.0,27.8,11111222
Freeport,ioos:station:wmo:42888:1,2020-10-13T02:22:00Z,26.3065,-91.0723,9.1,27.7,11111222
Freeport,ioos:station:wmo:42888:1,2020-10-13T02:32:00Z,26.3065,-91.0722,9.0,27.7,11111222
Freeport,ioos:station:wmo:42888:1,2020-10-13T02:42:00Z,26.3065,-91.0723,9.0,27.8,11111222
Freeport,ioos:station:wmo:42888:1,2020-10-13T02:52:00Z,26.3065,-91.0723,9.1,27.8,11111222
Freeport,ioos:station:wmo:42888:1,2020-10-13T03:02:00Z,26.3065,-91.0722,9.1,27.8,11111222
Freeport,ioos:station:wmo:42888:1,2020-10-13T03:12:00Z,26.3065,-91.0723,9.1,27.8,11111222
Freeport,ioos:station:wmo:42888:1,2020-10-13T03:22:00Z,26.3065,-91.0722,9.1,27.8,11111222
Freeport,ioos:station:wmo:42888:1,2020-10-13T03:32:00Z,26.3065,-91.0722,9.5,27.8,11111222
Freeport,ioos:station:wmo:42888:1,2020-10-13T03:42:00Z,26.3065,-91.0723,9.3,27.7,11111222
Freeport,ioos:station:wmo:42888:1,2020-10-13T03:52:00Z,26.3064,-91.0723,9.2,27.7,11111222
Freeport,ioos:station:wmo:42888:1,2020-10-13T04:02:00Z,26.3065,-91.0722,9.0,27.7,11111222
Freeport,ioos:station:wmo:42888:1,2020-10-13T04:12:00Z,26.3065,-91.0723,9.0,27.7,11111222
Freeport,ioos:station:wmo:42888:1,2020-10-13T04:22:00Z,26.3065,-91.0723,9.2,27.7,11111222
Freeport,ioos:station:wmo:42888:1,2020-10-13T04:32:00Z,26.3065,-91.0722,9.3,27.7,11111222
Freeport,ioos:station:wmo:42888:1,2020-10-13T04:42:00Z,26.3065,-91.0723,9.5,27.7,11111222
Freeport,ioos:station:wmo:42888:1,2020-10-13T04:52:00Z,26.3065,-91.0723,9.6,27.8,11111222
Freeport,ioos:station:wmo:42888:1,2020-10-13T05:02:00Z,26.3065,-91.0723,9.1,27.8,11111222
Freeport,ioos:station:wmo:42888:1,2020-10-13T05:12:00Z,26.3065,-91.0722,9.4,27.8,11111222
Freeport,ioos:station:wmo:42888:1,2020-10-13T05:22:00Z,26.3065,-91.0722,9.1,27.8,11111222
Freeport,ioos:station:wmo:42888:1,2020-10-13T05:32:00Z,26.3065,-91.0723,9.3,27.8,11111222
Freeport,ioos:station:wmo:42888:1,2020-10-13T05:42:00Z,26.3065,-91.0723,9.3,27.8,11111222
Freeport,ioos:station:wmo:42888:1,2020-10-13T05:52:00Z,26.3064,-91.0723,9.4,27.8,11111222
Freeport,ioos:station:wmo:42888:1,2020-10-13T06:02:00Z,26.3065,-91.0722,9.2,27.8,11111222
Freeport,ioos:station:wmo:42888:1,2020-10-13T06:12:00Z,26.3065,-91.0723,9.1,27.8,11111222
Freeport,ioos:station:wmo:42888:1,2020-10-13T06:22:00Z,26.3065,-91.0723,9.3,27.8,11111222
Freeport,ioos:station:wmo:42888:1,2020-10-13T06:32:00Z,26.3065,-91.0723,9.1,27.8,11111222
Freeport,ioos:station:wmo:42888:1,2020-10-13T06:42:00Z,26.3065,-91.0723,9.1,27.7,11111222
Freeport,ioos:station:wmo:42888:1,2020-10-13T06:52:00Z,26.3065,-91.0723,8.9,27.7,11111222
Freeport,ioos:station:wmo:42888:1,2020-10-13T07:02:00Z,26.3065,-91.0722,9.2,27.7,11111222
Freeport,ioos:station:wmo:42888:1,2020-10-13T07:12:00Z,26.3065,-91.0723,9.0,27.7,11111222
Freeport,ioos:station:wmo:42888:1,2020-10-13T07:22:00Z,26.3065,-91.0723,9.1,27.7,11111222
Freeport,ioos:station:wmo:42888:1,2020-10-13T07:32:00Z,26.3065,-91.0723,8.7,27.7,11111222
Freeport,ioos:station:wmo:42888:1,2020-10-13T07:42:00Z,26.3065,-91.0723,8.8,27.7,11111222
Freeport,ioos:station:wmo:42888:1,2020-10-13T07:52:00Z,26.3065,-91.0723,8.9,27.6,11111222
Freeport,ioos:station:wmo:42888:1,2020-10-13T08:02:00Z,26.3065,-91.0723,8.7,27.6,11111222
Freeport,ioos:station:wmo:42888:1,2020-10-13T08:12:00Z,26.3065,-91.0723,8.9,27.6,11111222
Freeport,ioos:station:wmo:42888:1,2020-10-13T08:22:00Z,26.3065,-91.0723,8.7,27.6,11111222
Freeport,ioos:station:wmo:42888:1,2020-10-13T08:32:00Z,26.3065,-91.0723,8.7,27.6,11111222
Freeport,ioos:station:wmo:42888:1,2020-10-13T08:42:00Z,26.3065,-91.0723,8.8,27.6,11111222
Freeport,ioos:station:wmo:42888:1,2020-10-13T08:52:00Z,26.3066,-91.0722,9.0,27.6,11111222
Freeport,ioos:station:wmo:42888:1,2020-10-13T09:02:00Z,26.3065,-91.0723,9.0,27.6,11111222
Freeport,ioos:station:wmo:42888:1,2020-10-13T09:12:00Z,26.3065,-91.0723,8.7,27.6,11111222
Freeport,ioos:station:wmo:42888:1,2020-10-13T09:22:00Z,26.3065,-91.0722,9.0,27.7,11111222
Freeport,ioos:station:wmo:42888:1,2020-10-13T09:32:00Z,26.3065,-91.0722,8.8,27.6,11111222
Freeport,ioos:station:wmo:42888:1,2020-10-13T09:42:00Z,26.3065,-91.0723,8.9,27.6,11111222
Freeport,ioos:station:wmo:42888:1,2020-10-13T09:52:00Z,26.3065,-91.0723,8.9,27.6,11111222
Freeport,ioos:station:wmo:42888:1,2020-10-13T10:02:00Z,26.3065,-91.0723,8.9,27.6,11111222
Freeport,ioos:station:wmo:42888:1,2020-10-13T10:12:00Z,26.3065,-91.0723,8.8,27.6,11111222
Freeport,ioos:station:wmo:42888:1,2020-10-13T10:22:00Z,26.3065,-91.0723,8.7,27.6,11111222
Freeport,ioos:station:wmo:42888:1,2020-10-13T10:32:00Z,26.3065,-91.0723,8.7,27.6,11111222
Freeport,ioos:station:wmo:42888:1,2020-10-13T10:42:00Z,26.3065,-91.0723,8.7,27.6,11111222
Freeport,ioos:station:wmo:42888:1,2020-10-13T10:52:00Z,26.3065,-91.0723,8.8,27.7,11111222
Freeport,ioos:station:wmo:42888:1,2020-10-13T11:02:00Z,26.3065,-91.0723,8.6,27.7,11111222
Freeport,ioos:station:wmo:42888:1,2020-10-13T11:12:00Z,26.3065,-91.0723,8.8,27.7,11111222
Freeport,ioos:station:wmo:42888:1,2020-10-13T11:22:00Z,26.3065,-91.0723,8.8,27.7,11111222
Freeport,ioos:station:wmo:42888:1,2020-10-13T11:32:00Z,26.3065,-91.0723,8.7,27.7,11111222
Freeport,ioos:station:wmo:42888:1,2020-10-13T11:42:00Z,26.3065,-91.0722,9.1,27.7,11111222
Freeport,ioos:station:wmo:42888:1,2020-10-13T11:52:00Z,26.3065,-91.0723,9.1,27.7,11111222
Freeport,ioos:station:wmo:42888:1,2020-10-13T12:02:00Z,26.3065,-91.0723,8.7,27.7,11111222
Freeport,ioos:station:wmo:42888:1,2020-10-13T12:12:00Z,26.3065,-91.0723,9.0,27.7,11111222
Freeport,ioos:station:wmo:42888:1,2020-10-13T12:22:00Z,26.3065,-91.0723,8.8,27.7,11111222
Freeport,ioos:station:wmo:42888:1,2020-10-13T12:32:00Z,26.3065,-91.0723,8.9,27.7,11111222
Freeport,ioos:station:wmo:42888:1,2020-10-13T12:42:00Z,26.3064,-91.0723,8.8,27.7,11111222
Freeport,ioos:station:wmo:42888:1,2020-10-13T12:52:00Z,26.3065,-91.0723,8.8,27.7,11111222
Freeport,ioos:station:wmo:42888:1,2020-10-13T13:02:00Z,26.3065,-91.0722,9.0,27.7,11111222
Freeport,ioos:station:wmo:42888:1,2020-10-13T13:12:00Z,26.3065,-91.0723,9.2,27.7,11111222
Freeport,ioos:station:wmo:42888:1,2020-10-13T13:22:00Z,26.3065,-91.0723,9.0,27.7,11111222
Freeport,ioos:station:wmo:42888:1,2020-10-13T13:32:00Z,26.3065,-91.0722,9.0,27.7,11111222
Freeport,ioos:station:wmo:42888:1,2020-10-13T13:42:00Z,26.3065,-91.0723,8.9,27.7,11111222
Freeport,ioos:station:wmo:42888:1,2020-10-13T13:52:00Z,26.3065,-91.0723,9.0,27.7,11111222
Freeport,ioos:station:wmo:42888:1,2020-10-13T14:02:00Z,26.3065,-91.0723,9.0,27.7,11111222
Freeport,ioos:station:wmo:42888:1,2020-10-13T14:12:00Z,26.3065,-91.0723,9.0,27.7,11111222
Freeport,ioos:station:wmo:42888:1,2020-10-13T14:22:00Z,26.3065,-91.0723,9.2,27.7,11111222
Freeport,ioos:station:wmo:42888:1,2020-10-13T14:32:00Z,26.3065,-91.0722,9.0,27.7,11111222
Freeport,ioos:station:wmo:42888:1,2020-10-13T14:42:00Z,26.3065,-91.0722,9.0,27.7,11111222
Freeport,ioos:station:wmo:42888:1,2020-10-13T14:52:00Z,26.3065,-91.0723,9.0,27.7,11111222